Cosmos 1633 Rocket - Orbit

View from above orbital plane
View from above orbital plane
View from above satellite
View from above satellite

Ground track
Ground track

The orbit data is extracted from the following two-line orbital elements,

1 15593U 85020B   13142.20413550  .00000316  00000-0  35707-4 0  3506
2 15593 082.5391 213.3184 0010343 265.2833 128.3063 14.83339880523858
Epoch (UTC): 22 May 2013 04:53:57
Eccentricity: 0.0010343
inclination: 82.5391°
perigee height: 611 km
apogee height: 626 km
right ascension of ascending node: 213.3184°
argument of perigee: 265.2833°
revolutions per day: 14.83339880
mean anomaly at epoch: 128.3063°
orbit number at epoch: 52385

The dashed part of the orbit path shows where the satellite is in the earth's shadow,  

Developed and maintained by Chris Peat, Heavens-Above GmbH. Please read the updated FAQ before sending e-mail. Imprint. DLR